Location: Qazi Observatory
(41.6337°N, 88.1517°W)
Time: 19:13:04
(UTC-06:00)

Amateur Radio Satellites - All Passes

Search period start: 20 December 2014 18:43
Search period end: 21 December 2014 18:43
Location: Qazi Observatory, 41.6337°N, 88.1517°W

Satellite Date Start Highest point End Downlink Frequencies (MHz)
Time Altitude Azimuth
PRISM 20 Dec 18:59:19 19:02:56 29° 291° (WNW) 19:06:30 437.425
CANX-2 20 Dec 19:03:48 19:07:06 22° 67° (ENE) 19:10:26 2200.000
Cubesat XI-IV 20 Dec 19:03:56 19:05:36 11° 272° (W) 19:07:16 437.490
CUSAT 1 20 Dec 19:19:57 19:27:05 40° 72° (ENE) 19:34:54 437.405
ISS 20 Dec 19:20:14 19:23:28 54° 31° (NNE) 19:26:40 145.825
COMPASS 1 20 Dec 19:25:18 19:28:45 25° 68° (ENE) 19:32:14 437.405
SEEDS 20 Dec 19:30:29 19:34:18 33° 70° (ENE) 19:38:09 437.485
BRITE-PL 20 Dec 19:32:26 19:36:23 43° 72° (ENE) 19:40:20 437.365/2234.400
CUTE 1.7 + AOD 2 20 Dec 19:33:45 19:37:46 42° 72° (ENE) 19:41:50 437.475
CUBESAT XI-V 20 Dec 19:37:57 19:41:50 28° 292° (WNW) 19:45:42 437.345
DELFI C3 20 Dec 19:42:52 19:45:07 15° 64° (ENE) 19:47:22 145.870
STRAND 1 20 Dec 19:48:40 19:53:07 32° 293° (WNW) 19:57:34 437.568
DX 1 20 Dec 19:49:17 19:52:11 18° 64° (ENE) 19:55:04 434.975-435.025
SO-50 20 Dec 19:53:53 19:57:18 21° 111° (ESE) 20:00:48 436.795
GOMX 1 20 Dec 19:58:34 20:02:38 60° 74° (ENE) 20:06:46 467.674
HO-68 20 Dec 20:08:35 20:15:45 74° 255° (WSW) 20:22:58 435.675
Oscar 11 20 Dec 20:10:25 20:14:21 35° 70° (ENE) 20:18:19 145.826/435.025
DANDE 20 Dec 20:11:33 20:19:14 73° 79° (E) 20:27:55 436.750
UKube-1 20 Dec 20:19:03 20:22:58 34° 69° (ENE) 20:26:53 .
DOVE 4 20 Dec 20:23:29 20:27:37 84° 76° (ENE) 20:31:50 437.250
AAUSAT CUBESAT 2 20 Dec 20:24:34 20:28:46 81° 258° (WSW) 20:33:02 437.432
BEESAT 2 20 Dec 20:28:05 20:30:27 14° 40° (NE) 20:32:47 435.950
CUBEBUG 2 20 Dec 20:30:59 20:34:48 35° 70° (ENE) 20:38:43 437.445
CANX-2 20 Dec 20:39:01 20:42:51 32° 264° (W) 20:46:44 2200.000
ZACube-1 20 Dec 20:41:12 20:44:58 33° 70° (ENE) 20:48:49 437.345
VELOX 1 20 Dec 20:43:52 20:47:17 22° 66° (ENE) 20:50:41 145.980
CINEMA 3 20 Dec 20:48:03 20:52:12 88° 257° (WSW) 20:56:29 145.822/145.860
ESTCUBE 1 20 Dec 20:49:24 20:50:28 11° 60° (ENE) 20:51:32 437.505/2401.250
RS-15 20 Dec 20:51:05 21:02:24 84° 240° (WSW) 21:14:14 29.354- 29.394
ISS 20 Dec 20:57:30 20:59:46 18° 228° (SW) 21:02:02 145.825
COMPASS 1 20 Dec 21:00:44 21:04:22 28° 264° (W) 21:08:03 437.405
CUSAT 1 20 Dec 21:02:52 21:10:17 50° 268° (W) 21:18:22 437.405
SEEDS 20 Dec 21:06:59 21:10:12 21° 267° (W) 21:13:27 437.485
FUNcube-1 20 Dec 21:07:29 21:11:36 66° 75° (ENE) 21:15:51 145.935
UWE-3 20 Dec 21:08:30 21:12:41 82° 76° (ENE) 21:16:58 435.000/436.395/437.385
CUTE 1.7 + AOD 2 20 Dec 21:11:08 21:13:54 17° 268° (W) 21:16:41 437.475
BRITE-PL 20 Dec 21:12:53 21:15:11 14° 268° (W) 21:17:29 437.365/2234.400
DELFI C3 20 Dec 21:15:58 21:19:57 50° 261° (W) 21:23:59 145.870
50 SAT 20 Dec 21:17:37 21:21:21 39° 72° (ENE) 21:25:08 437.505
PCSat 20 Dec 21:17:50 21:21:55 21° 44° (NE) 21:25:58 145.827
DX 1 20 Dec 21:23:56 21:28:05 44° 260° (W) 21:32:15 434.975-435.025
BEESAT 3 20 Dec 21:25:05 21:29:08 45° 53° (NE) 21:33:06 437.485
AISAT 20 Dec 21:26:00 21:30:21 63° 74° (ENE) 21:34:44 437.250
CUBEBUG 1 20 Dec 21:32:16 21:35:56 27° 68° (ENE) 21:39:35 437.445
AIST 2 20 Dec 21:32:51 21:36:31 26° 47° (NE) 21:40:07 435.215
SO-50 20 Dec 21:33:10 21:37:31 44° 309° (NW) 21:42:02 436.795
ANTELSAT 20 Dec 21:38:00 21:41:29 20° 93° (E) 21:44:58 437.575/2403.000
HUMSAT D 20 Dec 21:40:25 21:44:33 89° 260° (W) 21:48:46 437.325/437.525
GOMX 1 20 Dec 21:40:34 21:41:14 10° 271° (W) 21:41:54 467.674
QB50P1 20 Dec 21:44:48 21:46:52 13° 91° (E) 21:48:55 145.935-145.965
Oscar 11 20 Dec 21:47:21 21:50:36 21° 267° (W) 21:53:53 145.826/435.025
UKube-1 20 Dec 21:55:52 21:59:11 21° 265° (W) 22:02:31 .
DANDE 20 Dec 21:56:05 22:02:14 26° 274° (W) 22:08:55 436.750
HO-68 20 Dec 22:02:12 22:04:35 12° 273° (W) 22:06:58 435.675
BEESAT 2 20 Dec 22:05:02 22:09:14 79° 239° (WSW) 22:13:22 435.950
CUBEBUG 2 20 Dec 22:08:40 22:11:39 19° 267° (W) 22:14:41 437.445
POPSAT HIP 1 20 Dec 22:12:14 22:15:51 27° 96° (E) 22:19:29 437.405
TIGRISAT 20 Dec 22:12:39 22:17:10 44° 99° (E) 22:21:40 435.000
ZACube-1 20 Dec 22:18:19 22:21:26 20° 267° (W) 22:24:37 437.345
VELOX 1 20 Dec 22:19:37 22:23:39 35° 262° (W) 22:27:43 145.980
ESTCUBE 1 20 Dec 22:22:06 22:26:39 84° 257° (WSW) 22:31:12 437.505/2401.250
TISAT 1 20 Dec 22:35:31 22:39:14 31° 70° (ENE) 22:42:57 437.305
BUGSAT 1 20 Dec 22:38:04 22:41:54 40° 99° (E) 22:45:44 437.445
SPROUT 20 Dec 22:39:22 22:43:09 32° 70° (ENE) 22:46:58 437.525
DUCHIFAT 1 20 Dec 22:39:44 22:43:55 54° 100° (E) 22:48:05 145.980
UNISAT 6 20 Dec 22:41:47 22:46:31 90° 277° (W) 22:51:15 437.425
FUNcube-1 20 Dec 22:47:57 22:48:27 10° 271° (W) 22:48:56 145.935
QB50P2 20 Dec 22:53:23 22:57:41 80° 103° (ESE) 23:01:57 145.880/145.840
50 SAT 20 Dec 22:54:13 22:56:44 16° 268° (W) 22:59:17 437.505
YUBILEINY 20 Dec 22:54:26 23:02:27 43° 87° (E) 23:10:27 435.215
PCSat 20 Dec 23:00:27 23:05:51 69° 244° (WSW) 23:11:12 145.827
POLYITAN 1 20 Dec 23:02:18 23:06:36 82° 284° (WNW) 23:10:54 437.675
BEESAT 3 20 Dec 23:04:11 23:06:57 17° 250° (WSW) 23:09:41 437.485
NANOSAT C BR1 20 Dec 23:04:22 23:08:38 78° 284° (WNW) 23:12:53 145.865
RS-15 20 Dec 23:05:34 23:13:09 21° 260° (W) 23:20:58 29.354- 29.394
AISAT 20 Dec 23:05:42 23:07:23 12° 270° (W) 23:09:04 437.250
CUBEBUG 1 20 Dec 23:08:28 23:12:13 28° 264° (W) 23:15:58 437.445
AIST 2 20 Dec 23:11:17 23:15:12 35° 245° (WSW) 23:19:02 435.215
ANTELSAT 20 Dec 23:13:59 23:18:26 43° 289° (WNW) 23:22:53 437.575/2403.000
QB50P1 20 Dec 23:18:55 23:23:04 53° 287° (WNW) 23:27:13 145.935-145.965
SWISSCUBE 20 Dec 23:27:46 23:31:25 22° 65° (ENE) 23:35:03 437.505
ITUPSAT 1 20 Dec 23:28:31 23:32:00 21° 64° (ENE) 23:35:31 437.325
M-CUBED/EXP-1 PRIME 20 Dec 23:28:33 23:31:28 16° 57° (ENE) 23:34:23 437.505
POPSAT HIP 1 20 Dec 23:48:07 23:51:41 27° 292° (WNW) 23:55:15 437.405
TIGRISAT 20 Dec 23:50:09 23:53:35 21° 295° (WNW) 23:57:02 435.000
BEESAT 20 Dec 23:51:55 23:56:13 34° 69° (ENE) 00:00:32 436.000
TISAT 1 21 Dec 00:11:50 00:15:06 22° 265° (W) 00:18:22 437.305
BUGSAT 1 21 Dec 00:14:29 00:17:05 17° 295° (WNW) 00:19:42 437.445
SPROUT 21 Dec 00:15:57 00:19:17 22° 266° (W) 00:22:38 437.525
DUCHIFAT 1 21 Dec 00:17:04 00:19:20 14° 297° (WNW) 00:21:36 145.980
UNISAT 6 21 Dec 00:21:28 00:22:34 11° 300° (WNW) 00:23:40 437.425
O/OREOS (USA 219) 21 Dec 00:25:53 00:30:20 81° 111° (ESE) 00:34:48 437.305
QB50P2 21 Dec 00:32:33 00:32:57 10° 299° (WNW) 00:33:20 145.880/145.840
AUBIESAT-1 21 Dec 00:35:15 00:40:00 59° 68° (ENE) 00:44:49 437.475
Oscar 19 21 Dec 00:42:38 00:47:08 29° 95° (E) 00:51:35 437.125/150
STARS 21 Dec 00:48:19 00:51:12 18° 64° (ENE) 00:54:07 437.465
YUBILEINY 21 Dec 00:51:02 00:59:11 43° 287° (WNW) 01:07:23 435.215
KKS-1 21 Dec 00:51:38 00:55:23 28° 68° (ENE) 00:59:09 437.445
ITAMSAT 1 21 Dec 01:00:13 01:03:08 15° 91° (E) 01:06:02 435.822/435.867
M-CUBED/EXP-1 PRIME 21 Dec 01:01:01 01:05:51 73° 253° (WSW) 01:10:47 437.505
SWISSCUBE 21 Dec 01:04:27 01:08:59 42° 261° (W) 01:13:33 437.505
ITUPSAT 1 21 Dec 01:04:57 01:09:34 46° 261° (W) 01:14:12 437.325
BEESAT 21 Dec 01:30:07 01:34:05 26° 265° (W) 01:38:05 436.000
O/OREOS (USA 219) 21 Dec 02:08:35 02:10:21 12° 310° (NW) 02:12:06 437.305
VERMONT LUNAR 21 Dec 02:08:47 02:11:23 19° 152° (SSE) 02:14:00 437.305
AUBIESAT-1 21 Dec 02:12:09 02:15:15 17° 264° (W) 02:18:23 437.475
HORYU 2 21 Dec 02:14:11 02:17:07 17° 92° (E) 02:20:02 437.375
Oscar 19 21 Dec 02:21:47 02:26:29 35° 292° (WNW) 02:31:10 437.125/150
STARS 21 Dec 02:23:09 02:27:20 45° 261° (W) 02:31:34 437.465
PHONESAT 2.4 21 Dec 02:24:31 02:27:00 18° 150° (SSE) 02:29:29 2401.200-2431.200
KKS-1 21 Dec 02:28:10 02:31:57 28° 264° (W) 02:35:46 437.445
Gurwin Techsat 1B 21 Dec 02:35:00 02:40:20 75° 103° (ESE) 02:45:38 435.225
ITAMSAT 1 21 Dec 02:37:56 02:43:04 66° 287° (WNW) 02:48:11 435.822/435.867
AO-7 21 Dec 02:52:14 02:58:29 23° 92° (E) 03:04:39 29.400- 29.500
AIST 1 21 Dec 03:13:10 03:17:26 70° 81° (E) 03:21:40
JAS-2 21 Dec 03:34:46 03:36:20 11° 86° (E) 03:37:51 435.910
MOZHAYETS 4 21 Dec 03:39:21 03:43:51 52° 73° (ENE) 03:48:23
VERMONT LUNAR 21 Dec 03:45:51 03:49:19 56° 167° (SSE) 03:52:47 437.305
HORYU 2 21 Dec 03:49:40 03:54:01 47° 288° (WNW) 03:58:20 437.375
PHONESAT 2.4 21 Dec 04:01:42 04:05:15 53° 166° (SSE) 04:08:47 2401.200-2431.200
PRISM 21 Dec 04:15:33 04:18:34 19° 66° (ENE) 04:21:36 437.425
Gurwin Techsat 1B 21 Dec 04:16:38 04:19:39 16° 300° (WNW) 04:22:40 435.225
SO-50 21 Dec 04:24:11 04:28:17 26° 45° (NE) 04:32:23 436.795
AO-7 21 Dec 04:43:39 04:52:02 78° 291° (WNW) 05:00:21 29.400- 29.500
GONETS M04 21 Dec 04:48:56 04:57:19 51° 89° (E) 05:05:44
CUBESAT XI-V 21 Dec 05:04:14 05:08:19 31° 69° (ENE) 05:12:23 437.345
JAS-2 21 Dec 05:16:41 05:22:22 82° 285° (WNW) 05:27:35 435.910
MOZHAYETS 4 21 Dec 05:18:33 05:21:23 16° 269° (W) 05:24:13
VERMONT LUNAR 21 Dec 05:24:01 05:27:33 73° 184° (S) 05:31:04 437.305
STRAND 1 21 Dec 05:25:28 05:30:20 47° 70° (ENE) 05:35:13 437.568
Cubesat XI-IV 21 Dec 05:36:59 05:41:47 34° 97° (E) 05:46:34 437.490
PHONESAT 2.4 21 Dec 05:40:12 05:43:50 75° 183° (S) 05:47:27 2401.200-2431.200
PRISM 21 Dec 05:49:54 05:53:50 37° 262° (W) 05:57:47 437.425
SO-50 21 Dec 06:04:21 06:09:03 48° 243° (WSW) 06:13:45 436.795
CUTE-I 21 Dec 06:09:46 06:15:05 67° 102° (ESE) 06:20:21 437.470
AO-7 21 Dec 06:38:10 06:43:30 19° 311° (NW) 06:48:51 29.400- 29.500
CUBESAT XI-V 21 Dec 06:41:45 06:45:43 27° 265° (W) 06:49:42 437.345
GONETS M04 21 Dec 06:46:24 06:54:22 37° 289° (WNW) 07:02:22
VERMONT LUNAR 21 Dec 07:02:24 07:05:40 35° 201° (SSW) 07:08:55 437.305
JAS-2 21 Dec 07:04:43 07:06:22 11° 306° (NW) 07:08:00 435.910
STRAND 1 21 Dec 07:05:56 07:09:45 21° 267° (W) 07:13:34 437.568
Cubesat XI-IV 21 Dec 07:17:09 07:21:47 32° 293° (WNW) 07:26:25 437.490
PHONESAT 2.4 21 Dec 07:18:56 07:22:21 40° 199° (SSW) 07:25:47 2401.200-2431.200
BRITE-PL 21 Dec 07:36:59 07:39:51 16° 92° (E) 07:42:50 437.365/2234.400
HO-68 21 Dec 07:37:18 07:42:28 21° 92° (E) 07:47:35 435.675
CUTE-I 21 Dec 07:51:14 07:54:35 17° 299° (WNW) 07:57:56 437.470
MaSat-1 21 Dec 07:51:52 07:53:36 19° 111° (ESE) 07:55:18 437.345
GOMX 1 21 Dec 08:00:02 08:03:31 20° 93° (E) 08:07:09 467.674
AAUSAT CUBESAT 2 21 Dec 08:09:14 08:11:55 16° 92° (E) 08:14:35 437.432
DOVE 4 21 Dec 08:22:11 08:26:06 24° 95° (E) 08:30:10 437.250
CANX-2 21 Dec 08:24:03 08:28:09 41° 98° (E) 08:32:13 2200.000
CUSAT 1 21 Dec 08:33:31 08:36:32 23° 85° (E) 08:40:18 437.405
ANTELSAT 21 Dec 08:38:12 08:41:11 18° 64° (ENE) 08:44:14 437.575/2403.000
QB50P1 21 Dec 08:39:30 08:40:47 11° 62° (ENE) 08:42:06 145.935-145.965
CINEMA 3 21 Dec 08:42:55 08:46:44 23° 94° (E) 08:50:38 145.822/145.860
COMPASS 1 21 Dec 08:43:58 08:48:04 45° 99° (E) 08:52:08 437.405
SEEDS 21 Dec 08:50:19 08:54:36 64° 101° (E) 08:58:50 437.485
CUTE 1.7 + AOD 2 21 Dec 08:54:37 08:58:58 84° 103° (ESE) 09:03:16 437.475
DELFI C3 21 Dec 08:57:01 09:00:16 22° 94° (E) 09:03:29 145.870
O/OREOS (USA 219) 21 Dec 08:57:19 09:00:24 18° 55° (NE) 09:03:29 437.305
FUNcube-1 21 Dec 08:57:27 08:59:45 14° 90° (E) 09:02:04 145.935
PHONESAT 2.4 21 Dec 08:59:13 09:00:27 11° 214° (SW) 09:01:41 2401.200-2431.200
UWE-3 21 Dec 08:59:15 09:02:21 18° 92° (E) 09:05:29 435.000/436.395/437.385
YUBILEINY 21 Dec 09:04:40 09:10:52 21° 63° (ENE) 09:17:01 435.215
POPSAT HIP 1 21 Dec 09:06:06 09:09:19 22° 67° (ENE) 09:12:32 437.405
RS-15 21 Dec 09:11:58 09:15:10 12° 95° (E) 09:18:21 29.354- 29.394
TIGRISAT 21 Dec 09:12:01 09:16:02 38° 70° (ENE) 09:20:11 435.000
DX 1 21 Dec 09:12:21 09:16:09 29° 97° (E) 09:19:57 434.975-435.025
BRITE-PL 21 Dec 09:13:59 09:18:37 58° 286° (WNW) 09:23:36 437.365/2234.400
AISAT 21 Dec 09:19:09 09:20:49 12° 90° (E) 09:22:29 437.250
HO-68 21 Dec 09:23:39 09:30:47 73° 289° (WNW) 09:37:52 435.675
HUMSAT D 21 Dec 09:26:07 09:28:44 16° 92° (E) 09:31:21 437.325/437.525
DANDE 21 Dec 09:27:47 09:31:16 80° 98° (E) 09:36:01 436.750
BUGSAT 1 21 Dec 09:28:56 09:32:29 30° 70° (ENE) 09:36:02 437.445
DUCHIFAT 1 21 Dec 09:32:52 09:36:48 41° 72° (ENE) 09:40:46 145.980
Oscar 11 21 Dec 09:33:17 09:37:39 70° 102° (ESE) 09:41:59 145.826/435.025
GOMX 1 21 Dec 09:37:13 09:41:47 47° 287° (WNW) 09:46:39 467.674
UNISAT 6 21 Dec 09:41:10 09:45:31 82° 76° (ENE) 09:50:02 437.425
UKube-1 21 Dec 09:42:19 09:46:37 61° 102° (ESE) 09:50:53 .
AAUSAT CUBESAT 2 21 Dec 09:43:46 09:47:47 42° 288° (WNW) 09:51:47 437.432
QB50P2 21 Dec 09:46:43 09:50:52 61° 74° (ENE) 09:55:03 145.880/145.840
POLYITAN 1 21 Dec 09:55:46 09:59:58 78° 76° (ENE) 10:04:12 437.675
NANOSAT C BR1 21 Dec 09:57:20 10:01:32 80° 76° (ENE) 10:05:46 145.865
CUBEBUG 2 21 Dec 09:57:49 10:02:29 84° 103° (ESE) 10:07:14 437.445
DOVE 4 21 Dec 09:59:30 10:03:55 38° 289° (WNW) 10:08:33 437.250
CANX-2 21 Dec 10:00:48 10:03:46 19° 294° (WNW) 10:06:45 2200.000
ZACube-1 21 Dec 10:05:22 10:09:55 74° 102° (ESE) 10:14:30 437.345
VELOX 1 21 Dec 10:09:56 10:14:08 41° 99° (E) 10:18:19 145.980
QB50P1 21 Dec 10:11:55 10:16:06 69° 258° (WSW) 10:20:19 145.935-145.965
ANTELSAT 21 Dec 10:13:27 10:17:37 44° 261° (W) 10:21:56 437.575/2403.000
ESTCUBE 1 21 Dec 10:15:45 10:19:04 20° 93° (E) 10:22:21 437.505/2401.250
CUSAT 1 21 Dec 10:16:14 10:19:29 25° 294° (WNW) 10:23:35 437.405
CINEMA 3 21 Dec 10:19:36 10:24:00 38° 289° (WNW) 10:28:32 145.822/145.860
COMPASS 1 21 Dec 10:20:43 10:23:25 17° 295° (WNW) 10:26:07 437.405
SEEDS 21 Dec 10:28:05 10:29:53 12° 298° (WNW) 10:31:40 437.485
DELFI C3 21 Dec 10:31:56 10:35:32 29° 290° (WNW) 10:39:06 145.870
FUNcube-1 21 Dec 10:31:58 10:36:26 59° 286° (WNW) 10:40:57 145.935
50 SAT 21 Dec 10:32:30 10:36:39 68° 101° (ESE) 10:40:47 437.505
UWE-3 21 Dec 10:34:41 10:39:06 47° 288° (WNW) 10:43:34 435.000/436.395/437.385
O/OREOS (USA 219) 21 Dec 10:35:44 10:40:06 51° 252° (WSW) 10:44:29 437.305
POPSAT HIP 1 21 Dec 10:41:15 10:45:02 32° 263° (W) 10:48:50 437.405
DX 1 21 Dec 10:48:43 10:52:17 25° 293° (WNW) 10:55:51 434.975-435.025
TIGRISAT 21 Dec 10:49:49 10:52:57 19° 267° (W) 10:56:10 435.000
AISAT 21 Dec 10:53:27 10:57:51 64° 286° (WNW) 11:02:15 437.250
CUBEBUG 1 21 Dec 10:56:41 11:00:55 51° 100° (E) 11:05:08 437.445
YUBILEINY 21 Dec 11:00:05 11:08:48 85° 264° (W) 11:17:30 435.215
HUMSAT D 21 Dec 11:00:36 11:04:46 47° 287° (WNW) 11:08:56 437.325/437.525
BUGSAT 1 21 Dec 11:04:50 11:08:00 22° 265° (W) 11:11:09 437.445
DUCHIFAT 1 21 Dec 11:10:11 11:12:52 16° 268° (W) 11:15:33 145.980
Oscar 11 21 Dec 11:11:37 11:13:14 12° 298° (WNW) 11:14:51 145.826/435.025
HO-68 21 Dec 11:13:37 11:17:16 15° 309° (NW) 11:20:55 435.675
RS-15 21 Dec 11:14:22 11:25:05 64° 115° (ESE) 11:35:49 29.354- 29.394
UKube-1 21 Dec 11:20:11 11:22:15 13° 298° (WNW) 11:24:20 .
QB50P2 21 Dec 11:25:54 11:27:11 11° 270° (W) 11:28:27 145.880/145.840
CUBEBUG 2 21 Dec 11:37:03 11:38:32 11° 299° (WNW) 11:40:01 437.445
ZACube-1 21 Dec 11:43:50 11:45:42 12° 298° (WNW) 11:47:34 437.345
VELOX 1 21 Dec 11:47:18 11:50:25 19° 295° (WNW) 11:53:32 145.980
ESTCUBE 1 21 Dec 11:51:54 11:56:04 39° 290° (WNW) 12:00:13 437.505/2401.250
TISAT 1 21 Dec 11:55:32 11:59:42 56° 101° (E) 12:03:52 437.305
Oscar 19 21 Dec 11:59:36 12:04:25 42° 70° (ENE) 12:09:16 437.125/150
SPROUT 21 Dec 12:01:27 12:05:43 62° 101° (E) 12:09:59 437.525
BEESAT 2 21 Dec 12:01:31 12:04:27 19° 111° (ESE) 12:07:25 435.950
PCSat 21 Dec 12:01:50 12:04:42 15° 103° (ESE) 12:07:34 145.827
ISS 21 Dec 12:02:33 12:04:29 15° 131° (SE) 12:06:24 145.825
50 SAT 21 Dec 12:10:00 12:11:18 11° 298° (WNW) 12:12:36 437.505
ITAMSAT 1 21 Dec 12:18:02 12:22:10 25° 65° (ENE) 12:26:19 435.822/435.867
Gurwin Techsat 1B 21 Dec 12:19:07 12:22:18 16° 61° (ENE) 12:25:30 435.225
CUBEBUG 1 21 Dec 12:34:20 12:36:52 15° 296° (WNW) 12:39:24 437.445
BEESAT 3 21 Dec 12:57:30 13:01:35 85° 122° (ESE) 13:05:46 437.485
YUBILEINY 21 Dec 12:59:25 13:04:12 16° 284° (WNW) 13:08:59 435.215
SWISSCUBE 21 Dec 13:04:33 13:09:10 48° 100° (E) 13:13:45 437.505
ITUPSAT 1 21 Dec 13:05:24 13:09:59 44° 99° (E) 13:14:31 437.325
AIST 2 21 Dec 13:09:23 13:13:25 46° 117° (ESE) 13:17:33 435.215
HORYU 2 21 Dec 13:13:26 13:16:19 17° 64° (ENE) 13:19:14 437.375
RS-15 21 Dec 13:27:50 13:38:00 42° 320° (NW) 13:48:21 29.354- 29.394
BEESAT 21 Dec 13:29:17 13:34:04 80° 103° (ESE) 13:38:49 436.000
TISAT 1 21 Dec 13:32:57 13:35:04 14° 297° (WNW) 13:37:10 437.305
ISS 21 Dec 13:37:25 13:40:42 66° 327° (NNW) 13:43:59 145.825
BEESAT 2 21 Dec 13:38:28 13:42:23 41° 308° (NW) 13:46:23 435.950
SPROUT 21 Dec 13:39:21 13:41:17 13° 297° (WNW) 13:43:14 437.525
Oscar 19 21 Dec 13:39:50 13:43:54 24° 266° (W) 13:48:01 437.125/150
PCSat 21 Dec 13:42:00 13:47:24 76° 300° (WNW) 13:52:51 145.827
AO-7 21 Dec 13:51:22 13:58:33 34° 58° (ENE) 14:05:47 29.400- 29.500
AUBIESAT-1 21 Dec 13:53:21 13:57:28 43° 103° (ESE) 14:01:12 437.475
Gurwin Techsat 1B 21 Dec 13:56:23 14:01:40 71° 258° (WSW) 14:06:59 435.225
ITAMSAT 1 21 Dec 13:56:31 14:01:25 42° 261° (W) 14:06:19 435.822/435.867
STARS 21 Dec 14:13:04 14:17:03 32° 97° (E) 14:21:00 437.465
KKS-1 21 Dec 14:18:27 14:22:52 55° 101° (E) 14:27:15 437.445
M-CUBED/EXP-1 PRIME 21 Dec 14:19:32 14:23:55 85° 289° (WNW) 14:27:53 437.505
BEESAT 3 21 Dec 14:38:17 14:40:22 13° 321° (NW) 14:42:28 437.485
SWISSCUBE 21 Dec 14:43:20 14:46:40 19° 296° (WNW) 14:49:58 437.505
ITUPSAT 1 21 Dec 14:44:04 14:47:33 21° 296° (WNW) 14:51:02 437.325
HORYU 2 21 Dec 14:48:17 14:52:36 49° 260° (W) 14:56:58 437.375
AIST 2 21 Dec 14:48:59 14:52:17 21° 316° (NW) 14:55:36 435.215
GONETS M04 21 Dec 14:59:24 15:06:20 25° 65° (ENE) 15:13:10
BEESAT 21 Dec 15:09:22 15:11:14 12° 300° (WNW) 15:13:06 436.000
ISS 21 Dec 15:15:23 15:17:46 18° 346° (NNW) 15:20:09 145.825
JAS-2 21 Dec 15:26:49 15:34:02 49° 69° (ENE) 15:40:36 435.910
PCSat 21 Dec 15:28:45 15:31:45 15° 321° (NW) 15:34:46 145.827
AUBIESAT-1 21 Dec 15:29:05 15:32:02 18° 302° (WNW) 15:34:49 437.475
MOZHAYETS 4 21 Dec 15:36:32 15:38:25 12° 89° (E) 15:40:17
AO-7 21 Dec 15:42:45 15:50:54 59° 257° (WSW) 15:59:09 29.400- 29.500
AIST 1 21 Dec 15:42:57 15:47:03 41° 92° (E) 15:51:09
RS-15 21 Dec 15:46:35 15:54:28 22° 353° (N) 16:02:31 29.354- 29.394
STARS 21 Dec 15:49:47 15:53:22 25° 293° (WNW) 15:56:58 437.465
CUTE-I 21 Dec 15:54:52 15:57:53 16° 60° (ENE) 16:00:54 437.470
KKS-1 21 Dec 15:56:25 15:59:03 16° 297° (WNW) 16:01:41 437.445
ISS 21 Dec 16:53:17 16:55:18 15° 6° (N) 16:57:18 145.825
GONETS M04 21 Dec 16:55:17 17:04:00 73° 266° (W) 17:12:37
Cubesat XI-IV 21 Dec 16:59:09 17:04:21 57° 72° (ENE) 17:09:34 437.490
MOZHAYETS 4 21 Dec 17:11:30 17:16:06 66° 286° (WNW) 17:20:38
JAS-2 21 Dec 17:12:18 17:19:06 35° 264° (W) 17:25:26 435.910
MaSat-1 21 Dec 17:21:04 17:23:16 32° 61° (ENE) 17:25:35 437.345
AIST 1 21 Dec 17:22:00 17:24:54 17° 289° (WNW) 17:27:48
CUTE-I 21 Dec 17:32:00 17:37:19 75° 257° (WSW) 17:42:39 437.470
PRISM 21 Dec 17:32:57 17:36:34 28° 97° (E) 17:40:08 437.425
STRAND 1 21 Dec 17:37:12 17:40:06 15° 91° (E) 17:43:00 437.568
RS-15 21 Dec 18:02:30 18:11:55 30° 29° (NNE) 18:21:37 29.354- 29.394
HO-68 21 Dec 18:07:37 18:12:08 18° 54° (NE) 18:16:40 435.675
DANDE 21 Dec 18:25:01 18:29:54 17° 63° (ENE) 18:35:08 436.750
ISS 21 Dec 18:29:34 18:32:37 34° 26° (NNE) 18:35:38 145.825
